Simultaneous Nadir Overpasses (SNOs) Predictions

Prediction of SNOs near equator between AQUA and NPP Satellite Orbit:

Table of predicted SNOs near equator for the next 14.0 days since TLE Epoch: 8/24/2013
Index Date (AQUA) Time (AQUA) AQUA Lat,Lon Date (NPP) Time (NPP) NPP Lat,Lon Distance(km) Time Diff (sec)
1 08/25/2013 07:54:17 -10.59, -96.21 08/25/2013 07:44:17 -10.63, -96.41 22.46 600
2 08/25/2013 08:41:24 1.89, 73.28 08/25/2013 08:32:36 1.80, 72.88 45.08 528
3 08/25/2013 09:29:30 2.70,-118.09 08/25/2013 09:21:58 2.83,-118.75 74.82 452
4 08/28/2013 00:09:03 -4.53, 20.98 08/27/2013 23:59:31 -4.50, 20.75 26.55 572
5 08/28/2013 00:57:19 -0.00,-170.43 08/28/2013 00:49:02 -0.10,-170.93 56.12 497
6 08/28/2013 01:45:25 4.59, -1.80 08/28/2013 01:38:24 4.73, -2.56 85.64 421
7 08/30/2013 15:43:08 29.94, -36.62 08/30/2013 15:33:08 30.28, -37.09 58.35 600
8 08/30/2013 16:24:58 -2.67, 137.27 08/30/2013 16:15:57 -2.61, 136.94 37.69 541
9 08/30/2013 17:13:14 -1.87, -54.14 08/30/2013 17:05:28 -2.00, -54.74 67.27 466
10 08/30/2013 18:01:20 6.46, 114.49 08/30/2013 17:54:50 6.62, 113.64 96.42 390
11 09/02/2013 07:52:45 5.30, 84.94 09/02/2013 07:43:00 5.28, 84.77 19.28 585
12 09/02/2013 08:40:53 -0.83,-106.44 09/02/2013 08:32:23 -0.72,-106.87 49.07 510
13 09/02/2013 09:29:07 -3.83, 62.16 09/02/2013 09:21:53 -3.95, 61.47 78.46 434
14 09/05/2013 00:08:37 3.37,-158.75 09/04/2013 23:59:24 3.34,-159.02 30.80 553
15 09/05/2013 00:56:44 1.17, 9.87 09/05/2013 00:48:46 1.28, 9.34 60.39 478
16 09/05/2013 01:45:00 -5.69, 178.46 09/05/2013 01:38:17 -5.89, 177.67 89.64 403




NCC Satellite Simultaneous Nadir Overpasses (SNOs) Prediction Service
